| time (UTC) | temp F | wind direction | speed MPH | gust MPH | rain 1hr in | rain 24hr in | rain mn in | humidity % | barometer mb |
| 20260831151845 | 83 | 117 | 2.0 | 9.0 | 0.00 | 0.10 | 0.00 | 76 | 1016.3 |
| 20260831151342 | 82 | 95 | 3.0 | 9.0 | 0.00 | 0.10 | 0.00 | 77 | 1016.3 |
| 20260831150841 | 82 | 66 | 2.0 | 7.0 | 0.00 | 0.10 | 0.00 | 77 | 1016.4 |
| 20260831145833 | 82 | 96 | 3.0 | 8.0 | 0.00 | 0.10 | 0.00 | 77 | 1016.5 |
| 20260831145332 | 82 | 80 | 3.0 | 9.0 | 0.00 | 0.10 | 0.00 | 77 | 1016.5 |
| 20260831144832 | 82 | 107 | 4.0 | 9.0 | 0.00 | 0.10 | 0.00 | 77 | 1016.4 |
| 20260831144332 | 83 | 66 | 3.0 | 9.0 | 0.00 | 0.10 | 0.00 | 76 | 1016.4 |
| 20260831142827 | 82 | 77 | 2.0 | 8.0 | 0.00 | 0.10 | 0.00 | 78 | 1016.2 |
| 20260831142326 | 82 | 91 | 2.0 | 10.0 | 0.00 | 0.10 | 0.00 | 78 | 1016.1 |
| 20260831141826 | 82 | 86 | 3.0 | 10.0 | 0.00 | 0.10 | 0.00 | 78 | 1016.0 |
| 20260831141327 | 83 | 134 | 1.0 | 7.0 | 0.00 | 0.10 | 0.00 | 77 | 1016.1 |
| 20260831140824 | 82 | 110 | 1.0 | 6.0 | 0.00 | 0.10 | 0.00 | 79 | 1016.3 |
| 20260831140325 | 81 | 158 | 2.0 | 9.0 | 0.00 | 0.10 | 0.00 | 81 | 1016.3 |
| 20260831135326 | 80 | 19 | 1.0 | 5.0 | 0.00 | 0.10 | 0.00 | 82 | 1016.4 |
| 20260831134826 | 80 | 97 | 1.0 | 6.0 | 0.00 | 0.10 | 0.00 | 83 | 1016.4 |
| 20260831134324 | 80 | 86 | 2.0 | 6.0 | 0.00 | 0.10 | 0.00 | 84 | 1016.5 |
| 20260831133825 | 80 | 45 | 1.0 | 6.0 | 0.00 | 0.10 | 0.00 | 83 | 1016.4 |
| 20260831133317 | 80 | 105 | 1.0 | 5.0 | 0.00 | 0.10 | 0.00 | 84 | 1016.4 |
| 20260831132315 | 79 | 103 | 1.0 | 5.0 | 0.00 | 0.10 | 0.00 | 86 | 1016.6 |
| 20260831131812 | 78 | 84 | 1.0 | 4.0 | 0.00 | 0.10 | 0.00 | 86 | 1016.6 |
| 20260831131313 | 78 | 15 | 2.0 | 5.0 | 0.00 | 0.10 | 0.00 | 86 | 1016.5 |
| 20260831130814 | 78 | 96 | 1.0 | 5.0 | 0.00 | 0.10 | 0.00 | 86 | 1016.6 |
| 20260831125806 | 77 | 89 | 0.0 | 1.0 | 0.00 | 0.10 | 0.00 | 86 | 1016.6 |
| 20260831125308 | 77 | 114 | 0.0 | 0.0 | 0.00 | 0.10 | 0.00 | 86 | 1016.5 |
| 20260831124807 | 76 | 193 | 0.0 | 3.0 | 0.00 | 0.10 | 0.00 | 87 | 1016.4 |
| 20260831124308 | 76 | 72 | 1.0 | 3.0 | 0.00 | 0.10 | 0.00 | 87 | 1016.4 |
| 20260831123807 | 76 | 94 | 0.0 | 3.0 | 0.00 | 0.10 | 0.00 | 87 | 1016.4 |
| 20260831123302 | 76 | 86 | 0.0 | 2.0 | 0.00 | 0.10 | 0.00 | 87 | 1016.4 |
| 20260831122803 | 76 | 86 | 1.0 | 4.0 | 0.00 | 0.10 | 0.00 | 87 | 1016.4 |
| 20260831121259 | 76 | 90 | 1.0 | 4.0 | 0.00 | 0.10 | 0.00 | 88 | 1016.3 |
| 20260831120759 | 76 | 8 | 0.0 | 3.0 | 0.00 | 0.10 | 0.00 | 89 | 1016.3 |
| 20260831120257 | 75 | 74 | 0.0 | 0.0 | 0.00 | 0.10 | 0.00 | 89 | 1016.2 |
| 20260831115755 | 75 | 74 | 0.0 | 2.0 | 0.00 | 0.10 | 0.00 | 89 | 1016.1 |
| 20260831114756 | 75 | 44 | 0.0 | 3.0 | 0.00 | 0.10 | 0.00 | 89 | 1016.2 |
| 20260831113755 | 75 | 6 | 0.0 | 1.0 | 0.00 | 0.10 | 0.00 | 91 | 1016.0 |
| 20260831113250 | 74 | 8 | 0.0 | 0.0 | 0.00 | 0.10 | 0.00 | 91 | 1015.9 |
| 20260831112252 | 74 | 6 | 0.0 | 0.0 | 0.00 | 0.10 | 0.00 | 92 | 1015.7 |
| 20260831111750 | 74 | 8 | 0.0 | 2.0 | 0.00 | 0.10 | 0.00 | 92 | 1015.7 |
| 20260831110752 | 74 | 19 | 1.0 | 3.0 | 0.00 | 0.10 | 0.00 | 93 | 1015.8 |
| 20260831110250 | 73 | 60 | 1.0 | 4.0 | 0.00 | 0.10 | 0.00 | 93 | 1015.8 |
| 20260831105746 | 73 | 47 | 0.0 | 4.0 | 0.00 | 0.10 | 0.00 | 94 | 1015.7 |
| 20260831105246 | 73 | 97 | 0.0 | 1.0 | 0.00 | 0.10 | 0.00 | 94 | 1015.5 |
| 20260831104746 | 73 | 98 | 0.0 | 2.0 | 0.00 | 0.10 | 0.00 | 95 | 1015.5 |
| 20260831103745 | 73 | 162 | 0.0 | 0.0 | 0.00 | 0.10 | 0.00 | 95 | 1015.3 |
| 20260831103245 | 73 | 162 | 0.0 | 0.0 | 0.00 | 0.10 | 0.00 | 95 | 1015.2 |
| 20260831102743 | 73 | 162 | 0.0 | 0.0 | 0.00 | 0.10 | 0.00 | 95 | 1015.1 |
| 20260831102240 | 73 | 160 | 0.0 | 0.0 | 0.00 | 0.10 | 0.00 | 94 | 1015.2 |
| 20260831100740 | 73 | 160 | 0.0 | 0.0 | 0.00 | 0.10 | 0.00 | 95 | 1015.3 |
| 20260831095737 | 72 | 160 | 0.0 | 0.0 | 0.00 | 0.10 | 0.00 | 95 | 1015.2 |
| 20260831095236 | 73 | 149 | 0.0 | 0.0 | 0.00 | 0.10 | 0.00 | 94 | 1015.2 |
| 20260831094732 | 73 | 148 | 0.0 | 0.0 | 0.00 | 0.10 | 0.00 | 94 | 1015.2 |
| 20260831093734 | 73 | 146 | 0.0 | 0.0 | 0.00 | 0.10 | 0.00 | 94 | 1015.3 |
| 20260831093233 | 73 | 147 | 0.0 | 0.0 | 0.00 | 0.10 | 0.00 | 94 | 1015.3 |
| 20260831091728 | 73 | 198 | 0.0 | 1.0 | 0.00 | 0.10 | 0.00 | 94 | 1015.2 |
| 20260831090227 | 73 | 95 | 0.0 | 0.0 | 0.00 | 0.10 | 0.00 | 93 | 1015.1 |
| 20260831085722 | 73 | 88 | 0.0 | 1.0 | 0.00 | 0.10 | 0.00 | 93 | 1015.1 |
| 20260831085223 | 73 | 87 | 0.0 | 2.0 | 0.00 | 0.10 | 0.00 | 93 | 1015.0 |
| 20260831084720 | 73 | 86 | 0.0 | 2.0 | 0.00 | 0.10 | 0.00 | 93 | 1015.1 |
| 20260831084221 | 73 | 97 | 0.0 | 3.0 | 0.00 | 0.10 | 0.00 | 93 | 1015.1 |
| 20260831083721 | 74 | 34 | 0.0 | 3.0 | 0.00 | 0.10 | 0.00 | 93 | 1015.1 |
| 20260831083222 | 74 | 102 | 0.0 | 1.0 | 0.00 | 0.10 | 0.00 | 93 | 1015.1 |
| 20260831082714 | 74 | 102 | 0.0 | 2.0 | 0.00 | 0.10 | 0.00 | 93 | 1015.1 |
| 20260831081709 | 74 | 32 | 1.0 | 4.0 | 0.00 | 0.10 | 0.00 | 94 | 1015.2 |
| 20260831081209 | 74 | 25 | 1.0 | 4.0 | 0.00 | 0.10 | 0.00 | 94 | 1015.1 |
| 20260831080710 | 74 | 30 | 0.0 | 3.0 | 0.00 | 0.10 | 0.00 | 94 | 1015.1 |
| 20260831080204 | 74 | 84 | 0.0 | 1.0 | 0.00 | 0.10 | 0.00 | 94 | 1015.0 |
| 20260831075703 | 74 | 71 | 0.0 | 1.0 | 0.00 | 0.10 | 0.00 | 94 | 1014.9 |
| 20260831075204 | 74 | 70 | 0.0 | 1.0 | 0.00 | 0.10 | 0.00 | 94 | 1014.9 |
| 20260831074703 | 74 | 70 | 0.0 | 1.0 | 0.00 | 0.10 | 0.00 | 95 | 1014.9 |
| 20260831074202 | 74 | 69 | 0.0 | 0.0 | 0.00 | 0.10 | 0.00 | 95 | 1014.9 |
| 20260831072658 | 74 | 17 | 0.0 | 0.0 | 0.00 | 0.10 | 0.00 | 95 | 1014.9 |
| 20260831072159 | 74 | 1 | 0.0 | 0.0 | 0.00 | 0.10 | 0.00 | 95 | 1014.9 |
| 20260831071657 | 74 | 0 | 0.0 | 0.0 | 0.00 | 0.10 | 0.00 | 94 | 1014.9 |
| 20260831071156 | 74 | 0 | 0.0 | 0.0 | 0.00 | 0.10 | 0.00 | 94 | 1015.0 |
| 20260831070654 | 74 | 1 | 0.0 | 0.0 | 0.00 | 0.10 | 0.00 | 94 | 1015.0 |
| 20260831070153 | 74 | 1 | 0.0 | 0.0 | 0.00 | 0.10 | 0.00 | 94 | 1015.0 |
| 20260831065652 | 74 | 1 | 0.0 | 0.0 | 0.00 | 0.10 | 0.00 | 94 | 1015.0 |
| 20260831065153 | 74 | 1 | 0.0 | 0.0 | 0.00 | 0.10 | 0.00 | 94 | 1015.1 |
| 20260831064652 | 74 | 0 | 0.0 | 1.0 | 0.00 | 0.10 | 0.00 | 94 | 1015.2 |
| 20260831064150 | 74 | 1 | 0.0 | 1.0 | 0.00 | 0.10 | 0.00 | 94 | 1015.2 |
| 20260831063142 | 74 | 1 | 0.0 | 0.0 | 0.00 | 0.10 | 0.00 | 94 | 1015.2 |
| 20260831062640 | 74 | 1 | 0.0 | 0.0 | 0.00 | 0.10 | 0.00 | 93 | 1015.2 |
| 20260831062139 | 74 | 0 | 0.0 | 0.0 | 0.00 | 0.10 | 0.00 | 93 | 1015.2 |
| 20260831061137 | 74 | 1 | 0.0 | 0.0 | 0.00 | 0.10 | 0.00 | 92 | 1015.3 |
| 20260831060630 | 74 | 1 | 0.0 | 0.0 | 0.00 | 0.10 | 0.00 | 92 | 1015.4 |
| 20260831060131 | 75 | 1 | 0.0 | 0.0 | 0.00 | 0.10 | 0.00 | 92 | 1015.4 |
| 20260831055630 | 75 | 1 | 0.0 | 0.0 | 0.00 | 0.10 | 0.00 | 91 | 1015.5 |
| 20260831054133 | 75 | 359 | 0.0 | 0.0 | 0.00 | 0.10 | 0.00 | 91 | 1015.4 |
| 20260831053624 | 75 | 0 | 0.0 | 0.0 | 0.00 | 0.10 | 0.00 | 91 | 1015.4 |
| 20260831053124 | 75 | 359 | 0.0 | 0.0 | 0.00 | 0.10 | 0.00 | 90 | 1015.4 |
| 20260831052624 | 75 | 1 | 0.0 | 0.0 | 0.00 | 0.10 | 0.00 | 90 | 1015.4 |
| 20260831051625 | 76 | 0 | 0.0 | 2.0 | 0.00 | 0.10 | 0.00 | 90 | 1015.3 |
| 20260831051125 | 76 | 359 | 0.0 | 2.0 | 0.00 | 0.10 | 0.00 | 90 | 1015.4 |
| 20260831050623 | 76 | 349 | 0.0 | 3.0 | 0.00 | 0.10 | 0.00 | 91 | 1015.5 |
| 20260831050124 | 76 | 359 | 0.0 | 3.0 | 0.00 | 0.10 | 0.00 | 91 | 1015.5 |
| 20260831045629 | 75 | 319 | 0.0 | 2.0 | 0.00 | 0.10 | 0.00 | 91 | 1015.7 |
| 20260831045121 | 75 | 323 | 0.0 | 2.0 | 0.00 | 0.10 | 0.00 | 92 | 1015.7 |
| 20260831044619 | 75 | 290 | 0.0 | 1.0 | 0.00 | 0.10 | 0.00 | 92 | 1015.6 |
| 20260831044119 | 75 | 217 | 0.0 | 2.0 | 0.00 | 0.10 | 0.00 | 93 | 1015.7 |
| 20260831043616 | 75 | 224 | 0.0 | 2.0 | 0.00 | 0.10 | 0.00 | 93 | 1015.7 |
| 20260831043115 | 75 | 232 | 0.0 | 2.0 | 0.00 | 0.10 | 0.00 | 93 | 1015.7 |
| 20260831042116 | 75 | 301 | 0.0 | 0.0 | 0.00 | 0.10 | 0.00 | 93 | 1015.7 |
| 20260831041613 | 75 | 300 | 0.0 | 0.0 | 0.00 | 0.10 | 0.00 | 93 | 1015.7 |
| 20260831040610 | 75 | 301 | 0.0 | 0.0 | 0.00 | 0.10 | 0.00 | 93 | 1015.7 |
| 20260831035606 | 75 | 300 | 0.0 | 0.0 | 0.00 | 0.10 | 0.10 | 92 | 1015.7 |
| 20260831034606 | 75 | 301 | 0.0 | 0.0 | 0.00 | 0.10 | 0.10 | 92 | 1015.7 |
| 20260831034106 | 75 | 301 | 0.0 | 0.0 | 0.00 | 0.10 | 0.10 | 92 | 1015.6 |
| 20260831033103 | 75 | 301 | 0.0 | 0.0 | 0.00 | 0.10 | 0.10 | 92 | 1015.6 |
| 20260831032102 | 75 | 301 | 0.0 | 0.0 | 0.00 | 0.10 | 0.10 | 92 | 1015.7 |
| 20260831031601 | 75 | 301 | 0.0 | 0.0 | 0.00 | 0.10 | 0.10 | 92 | 1015.8 |
| 20260831030554 | 75 | 301 | 0.0 | 1.0 | 0.00 | 0.10 | 0.10 | 92 | 1015.8 |
| 20260831030052 | 75 | 301 | 0.0 | 1.0 | 0.00 | 0.10 | 0.10 | 92 | 1015.7 |
| 20260831025048 | 75 | 302 | 0.0 | 0.0 | 0.00 | 0.10 | 0.10 | 92 | 1015.8 |
| 20260831024042 | 76 | 302 | 0.0 | 0.0 | 0.00 | 0.10 | 0.10 | 92 | 1016.0 |
| 20260831023540 | 75 | 302 | 0.0 | 0.0 | 0.00 | 0.10 | 0.10 | 91 | 1016.0 |
| 20260831023039 | 76 | 302 | 0.0 | 0.0 | 0.00 | 0.10 | 0.10 | 91 | 1016.1 |
| 20260831022536 | 76 | 302 | 0.0 | 0.0 | 0.00 | 0.10 | 0.10 | 90 | 1016.1 |
| 20260831022036 | 76 | 302 | 0.0 | 0.0 | 0.00 | 0.10 | 0.10 | 90 | 1016.0 |
| 20260831021529 | 76 | 302 | 0.0 | 0.0 | 0.00 | 0.10 | 0.10 | 90 | 1016.0 |
| 20260831021028 | 76 | 302 | 0.0 | 0.0 | 0.00 | 0.10 | 0.10 | 90 | 1016.0 |
| 20260831020526 | 76 | 302 | 0.0 | 0.0 | 0.00 | 0.10 | 0.10 | 90 | 1016.1 |
| 20260831020023 | 76 | 302 | 0.0 | 0.0 | 0.00 | 0.10 | 0.10 | 89 | 1016.0 |
| 20260831015524 | 76 | 302 | 0.0 | 1.0 | 0.01 | 0.10 | 0.10 | 89 | 1016.0 |
| 20260831014519 | 75 | 302 | 0.0 | 1.0 | 0.01 | 0.10 | 0.10 | 90 | 1016.1 |
| 20260831014020 | 75 | 288 | 0.0 | 1.0 | 0.02 | 0.10 | 0.10 | 90 | 1016.0 |
| 20260831013519 | 75 | 280 | 0.0 | 0.0 | 0.03 | 0.10 | 0.10 | 91 | 1016.0 |
| 20260831013018 | 75 | 319 | 0.0 | 2.0 | 0.04 | 0.10 | 0.10 | 91 | 1016.0 |
| 20260831012519 | 75 | 347 | 0.0 | 2.0 | 0.06 | 0.10 | 0.10 | 91 | 1015.9 |
| 20260831012015 | 74 | 263 | 0.0 | 2.0 | 0.07 | 0.10 | 0.10 | 91 | 1016.0 |
| 20260831011515 | 74 | 11 | 0.0 | 1.0 | 0.08 | 0.10 | 0.10 | 90 | 1015.7 |
| 20260831011016 | 74 | 5 | 0.0 | 2.0 | 0.09 | 0.10 | 0.10 | 91 | 1015.9 |
| 20260831010514 | 74 | 239 | 0.0 | 4.0 | 0.10 | 0.10 | 0.10 | 90 | 1015.6 |
| 20260831004507 | 74 | 225 | 2.0 | 7.0 | 0.09 | 0.09 | 0.09 | 88 | 1016.1 |
| 20260831003506 | 74 | 245 | 4.0 | 13.0 | 0.07 | 0.07 | 0.07 | 88 | 1016.3 |
| 20260831003006 | 74 | 338 | 5.0 | 15.0 | 0.06 | 0.06 | 0.06 | 87 | 1016.4 |
| 20260831002506 | 75 | 292 | 5.0 | 15.0 | 0.04 | 0.04 | 0.04 | 87 | 1016.4 |
| 20260831002000 | 76 | 304 | 6.0 | 18.0 | 0.03 | 0.03 | 0.03 | 87 | 1016.5 |
| 20260831001459 | 77 | 338 | 6.0 | 18.0 | 0.02 | 0.02 | 0.02 | 84 | 1016.4 |
| 20260831001001 | 80 | 246 | 5.0 | 16.0 | 0.01 | 0.01 | 0.01 | 79 | 1016.5 |
| 20260830235501 | 85 | 259 | 2.0 | 7.0 | 0.00 | 0.00 | 0.00 | 69 | 1015.7 |
| 20260830234956 | 85 | 212 | 2.0 | 7.0 | 0.00 | 0.00 | 0.00 | 68 | 1015.6 |
| 20260830233954 | 85 | 215 | 3.0 | 8.0 | 0.00 | 0.00 | 0.00 | 67 | 1015.3 |
| 20260830233454 | 85 | 233 | 2.0 | 8.0 | 0.00 | 0.00 | 0.00 | 67 | 1015.2 |
| 20260830232953 | 85 | 193 | 2.0 | 6.0 | 0.00 | 0.00 | 0.00 | 67 | 1015.2 |
| 20260830232454 | 85 | 222 | 3.0 | 8.0 | 0.00 | 0.00 | 0.00 | 67 | 1015.2 |
| 20260830231951 | 85 | 163 | 3.0 | 8.0 | 0.00 | 0.00 | 0.00 | 67 | 1015.1 |
| 20260830231452 | 85 | 196 | 4.0 | 12.0 | 0.00 | 0.00 | 0.00 | 66 | 1015.2 |
| 20260830230951 | 85 | 210 | 5.0 | 12.0 | 0.00 | 0.00 | 0.00 | 66 | 1015.2 |
| 20260830225451 | 85 | 203 | 3.0 | 8.0 | 0.00 | 0.00 | 0.00 | 66 | 1015.3 |
| 20260830224951 | 86 | 179 | 3.0 | 9.0 | 0.00 | 0.00 | 0.00 | 65 | 1015.4 |
| 20260830224448 | 86 | 212 | 3.0 | 9.0 | 0.00 | 0.00 | 0.00 | 64 | 1015.4 |
| 20260830223948 | 86 | 219 | 3.0 | 10.0 | 0.00 | 0.00 | 0.00 | 63 | 1015.4 |
| 20260830223446 | 87 | 271 | 4.0 | 10.0 | 0.00 | 0.00 | 0.00 | 63 | 1015.4 |
| 20260830222946 | 87 | 211 | 4.0 | 11.0 | 0.00 | 0.00 | 0.00 | 62 | 1015.3 |
| 20260830221948 | 88 | 248 | 4.0 | 12.0 | 0.00 | 0.00 | 0.00 | 60 | 1015.1 |
| 20260830221442 | 88 | 163 | 4.0 | 12.0 | 0.00 | 0.00 | 0.00 | 60 | 1015.1 |
| 20260830220941 | 88 | 238 | 4.0 | 11.0 | 0.00 | 0.00 | 0.00 | 60 | 1015.0 |
| 20260830220440 | 88 | 239 | 4.0 | 11.0 | 0.00 | 0.00 | 0.00 | 60 | 1014.8 |
| 20260830215942 | 88 | 187 | 4.0 | 11.0 | 0.00 | 0.00 | 0.00 | 60 | 1014.8 |
| 20260830215439 | 88 | 245 | 5.0 | 13.0 | 0.00 | 0.00 | 0.00 | 60 | 1014.8 |
| 20260830214940 | 88 | 224 | 5.0 | 13.0 | 0.00 | 0.00 | 0.00 | 60 | 1014.8 |
| 20260830213934 | 88 | 180 | 4.0 | 10.0 | 0.00 | 0.00 | 0.00 | 61 | 1014.9 |
| 20260830213434 | 87 | 218 | 4.0 | 9.0 | 0.00 | 0.00 | 0.00 | 61 | 1014.9 |
| 20260830212934 | 87 | 183 | 3.0 | 9.0 | 0.00 | 0.00 | 0.00 | 62 | 1015.0 |
| 20260830212434 | 87 | 275 | 3.0 | 7.0 | 0.00 | 0.00 | 0.00 | 62 | 1015.0 |
| 20260830211933 | 87 | 260 | 2.0 | 7.0 | 0.00 | 0.00 | 0.00 | 61 | 1014.9 |
| 20260830210930 | 87 | 203 | 4.0 | 8.0 | 0.00 | 0.00 | 0.00 | 61 | 1014.9 |
| 20260830205428 | 88 | 235 | 5.0 | 10.0 | 0.00 | 0.00 | 0.00 | 59 | 1014.9 |
| 20260830204929 | 89 | 187 | 4.0 | 10.0 | 0.00 | 0.00 | 0.00 | 57 | 1015.0 |
| 20260830204431 | 89 | 236 | 4.0 | 9.0 | 0.00 | 0.00 | 0.00 | 58 | 1015.1 |
| 20260830203924 | 89 | 228 | 4.0 | 10.0 | 0.00 | 0.00 | 0.00 | 57 | 1015.1 |
| 20260830203424 | 90 | 212 | 3.0 | 10.0 | 0.00 | 0.00 | 0.00 | 57 | 1015.1 |
| 20260830202923 | 90 | 242 | 3.0 | 8.0 | 0.00 | 0.00 | 0.00 | 57 | 1015.2 |
| 20260830202423 | 89 | 212 | 4.0 | 8.0 | 0.00 | 0.00 | 0.00 | 58 | 1015.2 |
| 20260830201924 | 90 | 107 | 4.0 | 10.0 | 0.00 | 0.00 | 0.00 | 57 | 1015.2 |
| 20260830201424 | 90 | 180 | 4.0 | 10.0 | 0.00 | 0.00 | 0.00 | 57 | 1015.2 |
| 20260830200923 | 90 | 190 | 5.0 | 13.0 | 0.00 | 0.00 | 0.00 | 57 | 1015.3 |
| 20260830200416 | 90 | 200 | 5.0 | 13.0 | 0.00 | 0.00 | 0.00 | 57 | 1015.2 |
| 20260830195917 | 90 | 224 | 3.0 | 12.0 | 0.00 | 0.00 | 0.00 | 57 | 1015.2 |
| 20260830195418 | 90 | 198 | 3.0 | 9.0 | 0.00 | 0.00 | 0.00 | 58 | 1015.1 |
| 20260830194917 | 90 | 231 | 4.0 | 12.0 | 0.00 | 0.00 | 0.00 | 58 | 1015.2 |
| 20260830194417 | 89 | 181 | 4.0 | 12.0 | 0.00 | 0.00 | 0.00 | 58 | 1015.3 |
| 20260830193916 | 89 | 239 | 4.0 | 9.0 | 0.00 | 0.00 | 0.00 | 59 | 1015.3 |
| 20260830193418 | 89 | 225 | 4.0 | 10.0 | 0.00 | 0.00 | 0.00 | 59 | 1015.5 |
| 20260830191909 | 89 | 193 | 4.0 | 11.0 | 0.00 | 0.00 | 0.00 | 60 | 1015.7 |
| 20260830191411 | 89 | 162 | 4.0 | 9.0 | 0.00 | 0.00 | 0.00 | 59 | 1015.8 |
| 20260830190410 | 89 | 167 | 4.0 | 11.0 | 0.00 | 0.00 | 0.00 | 59 | 1016.0 |
| 20260830185910 | 89 | 145 | 4.0 | 10.0 | 0.00 | 0.00 | 0.00 | 60 | 1016.1 |
| 20260830185410 | 89 | 212 | 3.0 | 10.0 | 0.00 | 0.00 | 0.00 | 60 | 1016.3 |
| 20260830184907 | 89 | 195 | 3.0 | 9.0 | 0.00 | 0.00 | 0.00 | 60 | 1016.4 |
| 20260830184406 | 88 | 248 | 4.0 | 9.0 | 0.00 | 0.00 | 0.00 | 63 | 1016.4 |
| 20260830183906 | 87 | 205 | 4.0 | 9.0 | 0.00 | 0.00 | 0.00 | 62 | 1016.5 |
| 20260830183408 | 87 | 208 | 4.0 | 10.0 | 0.00 | 0.00 | 0.00 | 62 | 1016.7 |
| 20260830182907 | 87 | 147 | 4.0 | 10.0 | 0.00 | 0.00 | 0.00 | 64 | 1016.7 |
| 20260830182407 | 86 | 312 | 4.0 | 8.0 | 0.00 | 0.00 | 0.00 | 65 | 1016.8 |
| 20260830181407 | 85 | 181 | 4.0 | 12.0 | 0.00 | 0.00 | 0.00 | 66 | 1017.0 |
| 20260830180908 | 85 | 194 | 4.0 | 12.0 | 0.00 | 0.00 | 0.00 | 65 | 1017.2 |
| 20260830180401 | 85 | 179 | 3.0 | 11.0 | 0.00 | 0.00 | 0.00 | 65 | 1017.2 |
| 20260830175902 | 86 | 239 | 3.0 | 7.0 | 0.00 | 0.00 | 0.00 | 65 | 1017.5 |
| 20260830175402 | 86 | 215 | 3.0 | 8.0 | 0.00 | 0.00 | 0.00 | 65 | 1017.4 |
| 20260830174401 | 85 | 253 | 5.0 | 11.0 | 0.00 | 0.00 | 0.00 | 66 | 1017.5 |
| 20260830173900 | 86 | 198 | 4.0 | 11.0 | 0.00 | 0.00 | 0.00 | 64 | 1017.6 |
| 20260830173401 | 86 | 211 | 5.0 | 12.0 | 0.00 | 0.00 | 0.00 | 64 | 1017.6 |
| 20260830172901 | 86 | 172 | 6.0 | 12.0 | 0.00 | 0.00 | 0.00 | 63 | 1017.7 |
| 20260830172358 | 87 | 203 | 5.0 | 13.0 | 0.00 | 0.00 | 0.00 | 63 | 1017.7 |
| 20260830171859 | 87 | 205 | 5.0 | 12.0 | 0.00 | 0.00 | 0.00 | 62 | 1017.8 |
| 20260830170900 | 87 | 259 | 5.0 | 11.0 | 0.00 | 0.00 | 0.00 | 63 | 1017.9 |
| 20260830170359 | 87 | 165 | 6.0 | 13.0 | 0.00 | 0.00 | 0.00 | 63 | 1018.0 |
| 20260830165859 | 86 | 192 | 5.0 | 13.0 | 0.00 | 0.00 | 0.00 | 64 | 1018.0 |
| 20260830165358 | 87 | 224 | 5.0 | 10.0 | 0.00 | 0.00 | 0.00 | 63 | 1018.0 |
| 20260830164900 | 86 | 267 | 5.0 | 11.0 | 0.00 | 0.00 | 0.00 | 64 | 1018.1 |
| 20260830163857 | 85 | 176 | 6.0 | 15.0 | 0.00 | 0.00 | 0.00 | 66 | 1018.1 |
| 20260830163354 | 86 | 174 | 6.0 | 15.0 | 0.00 | 0.00 | 0.00 | 65 | 1018.2 |
| 20260830162852 | 86 | 190 | 5.0 | 12.0 | 0.00 | 0.00 | 0.00 | 64 | 1018.4 |
| 20260830161853 | 85 | 210 | 5.0 | 13.0 | 0.00 | 0.00 | 0.00 | 67 | 1018.3 |
| 20260830161353 | 84 | 280 | 6.0 | 15.0 | 0.00 | 0.00 | 0.00 | 67 | 1018.4 |
| 20260830160854 | 84 | 339 | 6.0 | 15.0 | 0.00 | 0.00 | 0.00 | 67 | 1018.6 |
| 20260830160354 | 84 | 236 | 5.0 | 11.0 | 0.00 | 0.00 | 0.00 | 69 | 1018.6 |
| 20260830155854 | 83 | 280 | 4.0 | 11.0 | 0.00 | 0.00 | 0.00 | 70 | 1018.7 |
| 20260830155353 | 83 | 211 | 5.0 | 15.0 | 0.00 | 0.00 | 0.00 | 70 | 1018.7 |
| 20260830154852 | 83 | 207 | 5.0 | 15.0 | 0.00 | 0.00 | 0.00 | 70 | 1018.7 |
| 20260830154354 | 83 | 301 | 4.0 | 10.0 | 0.00 | 0.00 | 0.00 | 73 | 1018.7 |
| 20260830153852 | 82 | 191 | 4.0 | 10.0 | 0.00 | 0.00 | 0.00 | 74 | 1018.7 |
| 20260830153351 | 81 | 196 | 4.0 | 10.0 | 0.00 | 0.00 | 0.00 | 75 | 1018.7 |